Weather in Lom

Bulgaria     43°49′32″N   23°14′15″E
temp.,
°C
wind,
m/s
gust,
m/s
humid.,
%
clouds,
%
prec.,
mm/h
press.,
hPa
HPBL,
m
17 september, fri
fri1700:00+25w2235100 0.0 101523
03:00+22wnw1141100 0.0 101411
06:00+22sw1143100 0.0 101311
09:00+24wsw2240100 0.0 1013128
12:00+28sse2332100 0.1 1012339
15:00+34w5821100 0.1 10083414
18:00+29wsw223225 0.1 100729
21:00+20wnw3781100 2.4 1011198
18 september, sat
sat1800:00+18w22915 0.7 101248
03:00+18wsw33875 1.4 101166
06:00+18wnw5128869 0.3 1011352
09:00+19nw7117115 0.3 1012651
12:00+20nw81155100 0.0 1013715
15:00+21nw91154100 0.1 1013688
18:00+19wnw7126036 0.0 1012543
21:00+18wnw512635 0.0 1012296
19 september, sun
sun1900:00+16w39735 0.0 1013163
03:00+15wnw247267 0.0 101374
06:00+16wnw2565100 0.1 1013158
09:00+16wnw3772100 0.2 1014253
12:00+18nw2464100 0.1 1014220
15:00+21w3551100 0.1 1012399
18:00+26nw45385 0.0 10101082
21:00+20ssw3459100 0.3 101152
20 september, mon
mon2000:00+17w3787100 0.5 1013138
03:00+17w24865 1.0 101295
06:00+16wnw369017 0.1 1013123
09:00+19nw5107325 0.1 1014531
12:00+24wnw78477 0.0 10151352
15:00+27nw68335 0.0 10131845
18:00+25nnw67374 0.0 1013921
21:00+20wnw3551100 0.1 101481
21 september, tue
tue2100:00+16wnw3107186 0.0 1016238
03:00+15wnw267318 0.0 1016133
06:00+13nw247878 0.0 101769
09:00+16wnw366311 0.0 1018345
12:00+22nw553913 0.0 10171368
15:00+24nw563187 0.0 10171980
18:00+22nw8735100 0.0 10171304
21:00+15wnw71163100 0.3 1020602